Flag for U.S.A. Weather past 2 weeks in Bristol, Tennessee, U.S.A.

Now
67 °F

More clouds than sun.


Feels Like: 67 °F
Forecast: 64 / 74 °F
Wind: 7 mph from Southeast

Location: Abingdon-Southwest Abingdon

Current Time: Aug 1, 2014 at 8:43:56 AM

Latest Report: Aug 1, 2014 at 7:55 AM


Visibility: 10 mi

Pressure: 30.17 "Hg

Humidity: 85%

Dew point: 62 °F

Location of BristolLocation

Historic Weather in Bristol — Graph

°F

Bristol temperature yesterday

Maximum temperature yesterday: 80 °F (at 2:55 PM)
Minimum temperature yesterday: 58 °F (at 4:55 AM)
Average temperature yesterday: 68 °F

Past Weeks' High & Low Weather Summary

 TemperatureHumidityPressure
High86 °F (Jul 21, 2:55 PM)100% (Jul 24, 4:15 AM)30.25 "Hg (Jul 24, 4:15 AM)
Low51 °F (Jul 30, 5:55 AM)41% (Jul 17, 6:55 PM)29.91 "Hg (Jul 27, 8:15 PM)
Average70 °F78%30.10 "Hg
* Reported Jul 17 7:15 AM — Aug 1 7:35 AM, Bristol, Weather by CustomWeather, © 2014

Note: Actual official high and low records may vary slightly from our data, if they occured in-between our weather recording intervals... More about our weather records

Advertising

Bristol weather history for previous 24 hours

 ConditionsComfort  
Time TempWeatherWind HumidityBarometerVisibility
7:35 AM
Aug 1
67 °FCloudy.6 mph83%30.16 "Hg10 mi
7:15 AM67 °FMostly cloudy.5 mph82%30.16 "Hg10 mi
6:55 AM66 °FMostly cloudy.8 mph84%30.15 "Hg10 mi
6:35 AM66 °FMostly cloudy.7 mph84%30.15 "Hg10 mi
6:15 AM67 °FMostly cloudy.7 mph82%30.14 "Hg10 mi
5:55 AM67 °FOvercast.7 mph81%30.14 "Hg10 mi
5:35 AM67 °FMostly cloudy.5 mph80%30.14 "Hg10 mi
5:15 AM67 °FOvercast.5 mph78%30.14 "Hg10 mi
4:55 AM67 °FOvercast.7 mph75%30.14 "Hg10 mi
4:35 AM67 °FMostly cloudy.5 mph75%30.14 "Hg10 mi
4:15 AM67 °FOvercast.7 mph76%30.14 "Hg10 mi
3:55 AM67 °FOvercast.6 mph76%30.15 "Hg10 mi
3:35 AM67 °FPassing clouds.6 mph77%30.14 "Hg10 mi
3:15 AM67 °FClear.7 mph79%30.14 "Hg10 mi
2:55 AM67 °FClear.8 mph77%30.15 "Hg10 mi
2:35 AM67 °FClear.6 mph76%30.15 "Hg10 mi
2:15 AM68 °FClear.3 mph76%30.16 "Hg10 mi
1:55 AM68 °FClear.No wind74%30.16 "Hg10 mi
1:15 AM67 °FClear.No wind79%30.17 "Hg10 mi
12:55 AM67 °FClear.6 mph80%30.18 "Hg10 mi
12:15 AM67 °FPassing clouds.No wind85%30.18 "Hg10 mi
11:55 PM
Jul 31
68 °FPassing clouds.5 mph78%30.18 "Hg10 mi
11:35 PM67 °FOvercast.5 mph84%30.18 "Hg10 mi
11:15 PM67 °FOvercast.No wind88%30.18 "Hg10 mi
10:55 PM67 °FPassing clouds.No wind89%30.18 "Hg10 mi
10:35 PM67 °FClear.No wind85%30.18 "Hg10 mi
10:15 PM68 °FPassing clouds.No wind84%30.18 "Hg10 mi
9:55 PM70 °FMostly cloudy.No wind74%30.17 "Hg10 mi
9:35 PM70 °FPassing clouds.No wind76%30.17 "Hg10 mi
9:15 PM70 °FScattered clouds.No wind73%30.17 "Hg10 mi
8:55 PM71 °FPartly sunny.No wind76%30.16 "Hg10 mi
8:35 PM72 °FSunny.3 mph68%30.17 "Hg10 mi
8:15 PM73 °FSunny.No wind67%30.17 "Hg10 mi
7:55 PM74 °FSunny.3 mph67%30.16 "Hg10 mi
7:35 PM75 °FScattered clouds.6 mph63%30.16 "Hg10 mi
7:15 PM75 °FScattered clouds.5 mph62%30.16 "Hg10 mi
6:55 PM76 °FSunny.6 mph63%30.16 "Hg10 mi
6:35 PM76 °FSunny.5 mph62%30.16 "Hg10 mi
6:15 PM76 °FSunny.5 mph66%30.16 "Hg10 mi
5:55 PM76 °FSunny.No wind70%30.16 "Hg10 mi
5:35 PM75 °FScattered clouds.5 mph70%30.16 "Hg10 mi
5:15 PM72 °FBroken clouds.No wind77%30.16 "Hg10 mi
4:55 PM70 °FMore clouds than sun.No wind80%30.16 "Hg10 mi
4:35 PM69 °FDrizzle. More clouds than sun.No wind84%30.16 "Hg10 mi
4:15 PM67 °FRain. More clouds than sun.3 mph85%30.17 "Hg5 mi
3:55 PM70 °FRain. Cloudy.13 mph80%30.17 "Hg5 mi
3:35 PM78 °FBroken clouds.6 mph54%30.16 "Hg10 mi
3:15 PM79 °FBroken clouds.6 mph53%30.16 "Hg10 mi
2:55 PM80 °FScattered clouds.3 mph52%30.16 "Hg10 mi
2:35 PM79 °FScattered clouds.5 mph55%30.17 "Hg10 mi
2:15 PM78 °FScattered clouds.No wind56%30.17 "Hg10 mi
1:55 PM79 °FScattered clouds.6 mph54%30.17 "Hg10 mi
1:35 PM78 °FSunny.5 mph55%30.18 "Hg10 mi
1:15 PM76 °FSunny.No wind54%30.18 "Hg10 mi
12:55 PM76 °FSunny.No wind54%30.18 "Hg10 mi
12:35 PM76 °FSunny.3 mph55%30.18 "Hg10 mi
12:15 PM75 °FSunny.No wind53%30.18 "Hg10 mi
11:55 AM74 °FSunny.5 mph57%30.18 "Hg10 mi
11:35 AM74 °FSunny.6 mph60%30.18 "Hg10 mi
11:15 AM73 °FSunny.7 mph58%30.18 "Hg10 mi
10:55 AM72 °FSunny.8 mph62%30.18 "Hg10 mi
10:35 AM71 °FSunny.7 mph65%30.17 "Hg10 mi
10:15 AM70 °FSunny.6 mph69%30.17 "Hg10 mi
9:55 AM69 °FSunny.8 mph71%30.17 "Hg10 mi
9:35 AM68 °FSunny.5 mph74%30.17 "Hg10 mi
9:15 AM66 °FSunny.7 mph79%30.18 "Hg10 mi
8:55 AM64 °FSunny.7 mph81%30.18 "Hg10 mi
8:35 AM63 °FSunny.7 mph84%30.18 "Hg10 mi
8:15 AM62 °FSunny.7 mph86%30.18 "Hg10 mi
Weather by CustomWeather, © 2014

See weather overviewHow to use our weather pages